Francistown, Botswana

8:06 AM CAT on December 16, 2017 (GMT +0200)
Francistown

Weather History for FBFT - April, 2014

Change the Weather History Date:

Tuesday, April 1, 2014

  Actual Average Record
Temperature  
Mean Temperature 73 °F -  
Max Temperature 87 °F 81 °F 93 °F (1998)
Min Temperature 59 °F 57 °F 49 °F (2017)
Cooling Degree Days 8    
Growing Degree Days 23 (Base 50)    
Moisture  
Dew Point 59 °F    
Average Humidity 65    
Maximum Humidity 94    
Minimum Humidity 27    
Precipitation  
Precipitation 0.00 in - - ()
Sea Level Pressure  
Sea Level Pressure 30.02 in    
Wind  
Wind Speed 4 mph ()    
Max Wind Speed 8 mph    
Max Gust Speed -    
Visibility 6.1 miles    
Events      
Averages and records for this station are not official NWS values.
T = Trace of Precipitation, MM = Missing Value Source: Averaged Metar Reports

Daily Weather History Graph

Daily Weather History Graph

Search for Another Location

Airport or City:

Trip Planner

Search our weather history database for the weather conditions in past years. The results will help you decide how hot, cold, wet, or windy it might be!

Date:

Astronomy

Apr. 01, 2014 Rise Set
Actual Time 6:17 AM CAT 6:10 PM CAT
Civil Twilight 5:55 AM CAT 6:32 PM CAT
Nautical Twilight 5:29 AM CAT 6:58 PM CAT
Astronomical Twilight 5:03 AM CAT 7:23 PM CAT
Moon 7:42 AM CAT (4/1) 7:27 PM CAT (4/1)
Length of Visible Light 12h 37m
Length of Day
11h 52m
Waxing Crescent, 3% of the Moon is Illuminated
Apr 1
Waxing Crescent
Apr 7
First Quarter
Apr 15
Full
Apr 22
Last Quarter
Apr 29
New

Hourly Weather History & Observations

Time (CAT) Temp. Heat Index Dew Point Humidity Pressure Visibility Wind Dir Wind Speed Gust Speed Precip Events Conditions
12:00 AM 68.0 °F - 60.8 °F 78% 30.06 in - ESE 6.9 mph - N/A   Clear
1:00 AM 64.4 °F - 60.8 °F 88% 30.06 in - East 5.8 mph - N/A   Clear
2:00 AM 63 °F - 60 °F 87%  in 6 mi SE 3.5 mph - -  
2:00 AM 62.6 °F - 60.8 °F 94% 30.06 in - SE 3.5 mph - N/A   Clear
3:00 AM 60.8 °F - 59.0 °F 94% 30.06 in - Variable 2.3 mph - N/A   Clear
4:00 AM 59.0 °F - 57.2 °F 94% 30.06 in - SSE 3.5 mph - N/A   Clear
5:00 AM 60.8 °F - 59.0 °F 94% 30.06 in - Variable 2.3 mph - N/A   Clear
6:00 AM 59.0 °F - 57.2 °F 94% 30.06 in - Variable 1.2 mph - N/A   Clear
7:00 AM 60.8 °F - 50.0 °F 68% 30.09 in - NNE 2.3 mph - N/A   Clear
8:00 AM 67 °F - 60 °F 73%  in 6 mi 2.3 mph - -   Partly Cloudy
9:00 AM 73.4 °F - 62.6 °F 69% 30.09 in - NE 8.1 mph - N/A   Clear
11:00 AM 80.6 °F 81.8 °F 62.6 °F 54% 30.06 in 6.2 mi NNE 5.8 mph - N/A   Partly Cloudy
12:00 PM 86.0 °F 86.6 °F 62.6 °F 45% 30.04 in 6.2 mi Variable 3.5 mph - N/A   Scattered Clouds
1:00 PM 86.0 °F 85.4 °F 59.0 °F 40% 30.01 in 6.2 mi South 5.8 mph - N/A   Scattered Clouds
2:00 PM 87.8 °F 87.1 °F 59.0 °F 38% 29.98 in 6.2 mi SSW 8.1 mph - N/A   Scattered Clouds
3:00 PM 87.8 °F 86.1 °F 55.4 °F 33% 29.98 in 6.2 mi Variable 4.6 mph - N/A   Scattered Clouds
4:00 PM 87.8 °F 86.1 °F 55.4 °F 33% 29.92 in 6.2 mi SW 8.1 mph - N/A   Scattered Clouds
5:00 PM 85 °F - 56 °F 27%  in 6 mi SW 5.8 mph - -   Partly Cloudy
5:00 PM 86.0 °F 84.9 °F 57.2 °F 37% 29.95 in 6.2 mi SW 5.8 mph - N/A   Scattered Clouds
6:00 PM 80.6 °F 81.5 °F 60.8 °F 51% 29.95 in 6.2 mi SE 4.6 mph - N/A   Partly Cloudy
7:00 PM 75.2 °F - 60.8 °F 61% 29.98 in 6.2 mi SE 3.5 mph - N/A   Partly Cloudy
8:00 PM 71.6 °F - 60.8 °F 69% 30.01 in 6.2 mi ESE 5.8 mph - N/A   Partly Cloudy
9:00 PM 71.6 °F - 59.0 °F 64% 30.01 in - East 5.8 mph - N/A   Clear
10:00 PM 69.8 °F - 60.8 °F 73% 30.01 in - South 3.5 mph - N/A   Clear
11:00 PM 67 °F - 59 °F 68%  in 6 mi NNE 3.5 mph - -   Partly Cloudy
11:00 PM 68.0 °F - 59.0 °F 73% 30.01 in - North 3.5 mph - N/A   Clear